Weather in Penrith

United Kingdom     54°39′49″N   2°45′07″W
temp.,
°C
wind,
m/s
gust,
m/s
humid.,
%
clouds,
%
prec.,
mm/h
press.,
hPa
HPBL,
m
12 april, mon
mon1201:00−3sw11843 0.0 102510
04:00−3wnw00854 0.0 102610
07:00−3ne00845 0.0 102710
10:00+3wnw22603 0.0 1028595
13:00+6wnw334611 0.0 10281735
16:00+6wnw44439 0.0 10281588
19:00+3wnw35660 0.0 1030213
22:00−1sse117910 0.0 103110
13 april, tue
tue1301:00−2sse32745 0.0 103223
04:00−2sse227331 0.0 103224
07:00−1sse226944 0.0 103334
10:00+5ssw126327 0.0 1033364
13:00+8nw335638 0.0 10321446
16:00+8wnw345868 0.1 10321302
19:00+6nnw23815 0.1 103292
22:00+1ese118831 0.0 103410
14 april, wed
wed1401:00+1se11899 0.0 103410
04:000se11905 0.0 103410
07:00+1se11905 0.0 103510
10:00+7wsw00745 0.0 1034439
13:00+10nw116237 0.3 10341090
16:00+10nw226582 1.5 1033924
19:00+7nnw128253 2.8 103435
22:00+5se228772 0.3 103515
15 april, thu
thu1501:00+3se228455 0.3 103519
04:00+1ese228129 0.0 103514
07:00+1ese22815 0.0 103613
10:00+7ese23635 0.0 1035585
13:00+9ese335381 0.0 10351703
16:00+9ese445681 0.1 10341343
19:00+6ese46725 0.1 1034311
22:00+1ese32870 0.0 103525
16 april, fri
fri1601:00−1se33887 0.0 103539
04:00−1se33915 0.0 103541
07:000se22855 0.0 103650
10:00+6se23545 0.0 1036851
13:00+9se34455 0.0 10351634
16:00+10ese334891 0.0 10341781
19:00+7e47675 0.0 1035252
22:00+1ese22770 0.0 103719